RH
72 70 71 72 72 71 69 68 67 64 61 58 55 53 52 52 53 57 61 63 66 67 63 55 45 35 27 22 19 16 13 11 11 9 8 7 7 6 5 5 4 3 3 3 3 3 3 3 3 3 3 3 3 3 3 3 3 3 4 4 4 4 4 5 5 6 5 6 6 6 6 6 5 5 5 4 4 4 3 3 3 4 4 4 4 5 5 5
70 68 67 68 72 74 74 73 72 70 66 60 55 53 53 51 49 48 49 51 53 57 60 61 58 53 46 41 36 30 22 19 17 14 11 11 10 8 7 6 5 5 4 4 4 4 4 3 3 3 3 3 3 4 4 4 4 3 3 3 4 4 4 4 5 5 5 6 6 6 6 6 6 6 6 5 5 5 5 5 5 5 6 6 6 7 7 6
67 66 64 64 66 70 75 77 76 75 70 64 56 50 49 49 49 47 45 43 42 43 45 47 50 51 50 49 47 43 40 39 37 33 29 25 21 17 14 11 8 6 5 4 3 3 3 4 4 4 4 3 3 3 3 3 3 4 4 4 4 4 4 4 5 5 5 5 5 6 6 6 7 7 7 7 7 6 6 6 7 7 7 8 8 8 8 8
65 62 61 61 60 63 71 78 79 77 72 65 56 48 43 42 42 43 42 40 38 37 36 36 37 38 39 39 38 38 40 44 45 43 40 39 37 35 33 30 27 23 19 15 11 9 7 4 3 3 3 3 4 4 4 4 4 3 3 3 4 4 4 4 4 4 4 4 4 5 6 6 7 7 7 7 8 7 8 8 8 8 9 9 9 9 10 10
65 61 59 58 58 63 73 79 78 75 70 63 55 46 40 36 34 34 34 33 33 34 33 32 31 31 31 31 30 30 31 34 34 32 31 31 32 33 33 35 35 35 34 32 31 30 27 22 17 13 10 7 5 3 3 3 3 4 4 4 4 3 3 4 4 4 4 4 4 4 5 6 6 7 7 8 8 8 9 9 9 9 9 10 10 10 10 10
64 61 59 59 63 70 77 79 76 72 66 59 52 43 36 30 28 27 26 26 27 30 31 31 29 28 26 25 24 23 22 24 23 22 22 22 22 23 23 24 25 27 28 30 32 34 36 37 36 35 34 32 28 23 18 13 8 5 3 3 4 4 4 4 3 3 4 3 4 4 4 5 6 6 7 7 8 8 9 9 10 10 10 11 11 11 11 11
60 59 60 63 69 75 77 74 70 66 59 51 43 35 28 24 22 22 21 21 21 24 26 27 26 25 24 22 20 19 17 18 18 18 19 19 20 20 21 22 22 23 24 25 25 26 28 30 33 35 39 44 46 47 47 42 36 29 21 12 6 3 4 4 4 4 4 4 4 4 4 5 5 6 6 7 8 8 9 10 11 11 11 11 11 11 11 12
59 60 64 68 72 73 70 67 62 56 47 38 30 23 19 16 16 16 16 16 17 18 20 21 21 21 20 19 18 17 16 16 17 18 19 19 20 20 21 22 23 25 26 27 28 28 28 29 29 30 33 37 41 47 51 53 55 56 54 46 32 19 8 4 4 4 4 4 4 4 5 5 5 6 6 6 8 9 10 11 11 11 11 11 12 12 12 12
63 66 69 71 71 68 64 59 52 43 33 24 18 13 11 10 10 11 12 13 14 14 15 16 17 17 17 16 15 15 14 15 16 16 17 17 18 18 19 19 20 22 23 26 28 31 32 33 33 33 34 36 38 42 46 47 50 54 58 61 59 49 32 14 5 4 5 4 5 5 5 6 6 7 7 8 9 10 10 11 12 12 12 12 13 13 13 13
68 70 72 71 67 61 55 47 38 28 19 13 10 8 7 7 8 9 9 10 11 12 13 13 13 13 13 13 13 14 14 15 16 17 17 18 18 18 18 18 18 18 19 21 23 27 32 36 39 39 39 38 39 42 44 46 47 50 52 56 60 62 55 36 15 5 4 5 5 6 7 7 8 8 9 10 12 12 12 13 13 14 14 14 14 15 15 15
69 68 65 60 53 45 37 29 21 14 10 7 7 7 7 7 7 7 8 8 9 9 9 10 10 11 13 14 16 17 17 18 19 20 20 20 20 20 20 20 19 19 18 18 18 20 24 33 41 44 45 44 43 44 45 46 47 50 52 54 56 59 59 48 27 10 5 6 7 7 8 9 10 11 12 12 13 13 14 14 15 15 16 16 16 17 17 17
60 54 47 40 32 25 19 14 10 8 7 7 7 6 6 6 6 6 7 7 8 9 11 12 14 15 17 18 20 21 21 22 21 21 21 20 20 20 20 20 20 19 19 19 18 18 19 26 38 48 52 51 52 50 48 49 50 52 54 55 56 56 55 48 33 18 10 8 9 10 11 11 14 15 16 17 18 19 20 20 20 19 19 19 19 20 21 21
38 31 25 20 16 14 11 9 8 8 8 7 6 6 7 9 10 12 13 14 15 17 18 19 19 20 20 20 21 21 21 20 19 19 18 18 17 17 17 17 17 17 18 19 19 19 21 26 38 54 61 62 63 62 59 59 58 58 59 61 60 57 53 45 34 24 17 14 14 15 16 18 20 23 24 26 27 27 27 26 25 23 23 23 23 24 24 24
20 17 15 13 11 10 9 9 8 7 6 7 10 14 17 19 20 20 20 21 22 22 22 22 22 21 21 20 20 19 18 17 17 16 15 14 14 14 14 14 14 15 15 17 19 22 29 40 53 67 74 74 74 73 71 70 69 69 68 67 62 56 48 40 31 25 22 22 23 23 23 24 24 25 25 25 25 25 24 23 22 22 23 24 24 25 25 25
16 15 13 11 10 9 8 7 7 9 13 18 23 24 25 24 23 22 22 22 22 22 22 21 21 20 19 18 17 16 15 14 13 12 11 10 10 10 10 11 11 11 13 15 21 29 44 61 74 81 82 80 78 77 75 74 74 74 72 67 60 50 41 34 28 25 24 26 28 28 27 26 25 24 23 23 22 21 21 22 24 26 28 30 31 31 30 27
14 13 12 10 8 7 7 11 16 22 26 27 27 26 25 24 23 23 22 22 22 22 21 20 19 18 17 16 15 14 13 12 11 11 11 10 10 10 10 10 10 11 14 19 31 47 64 75 79 80 76 73 71 71 70 69 68 65 62 59 51 40 31 26 24 24 24 25 27 28 27 26 25 24 23 23 24 26 29 31 34 35 35 34 32 29 26 23
11 10 9 7 8 11 17 24 28 29 28 27 25 25 25 24 23 23 23 22 21 20 19 18 17 16 16 15 13 13 14 14 14 14 15 14 14 13 12 11 11 12 18 32 51 66 74 71 66 63 58 56 58 59 60 59 54 50 47 46 41 34 29 26 25 26 26 26 27 28 28 27 28 30 32 34 37 38 38 38 37 35 32 29 27 25 24 24
8 8 9 13 20 26 29 30 29 27 26 26 26 26 25 25 24 23 22 21 20 18 17 17 16 16 16 16 16 18 18 18 18 19 19 19 19 19 18 17 16 16 27 50 69 72 68 61 53 49 46 48 51 51 54 55 51 47 43 40 35 30 24 21 22 24 27 29 32 35 36 38 41 43 43 43 43 41 40 38 36 34 31 30 29 28 28 28
11 16 22 29 31 31 29 28 27 27 28 27 27 26 25 24 23 22 20 18 18 17 18 18 17 18 20 21 23 23 23 23 24 24 24 26 27 28 29 30 31 34 44 63 77 74 66 58 51 48 47 50 54 56 60 61 59 56 53 50 46 41 36 35 38 41 44 47 48 48 47 46 46 45 43 42 41 40 39 38 35 32 31 30 30 30 30 30
27 32 33 32 30 29 29 29 29 29 28 27 25 25 24 22 20 19 18 18 18 18 20 21 22 25 26 28 29 28 29 31 31 31 33 36 39 42 45 48 50 53 58 69 76 72 65 60 53 52 54 57 60 59 55 49 44 40 38 38 38 38 39 39 41 42 43 43 42 42 42 42 42 41 41 40 39 36 33 31 29 28 28 28 28 29 29 29
34 33 31 30 31 31 30 30 30 29 28 25 23 23 21 20 20 19 19 21 22 23 24 27 28 31 32 33 33 32 34 38 40 42 46 48 50 53 56 58 59 62 69 76 78 71 64 59 56 57 57 52 46 38 31 26 23 20 19 20 20 22 24 27 29 30 31 33 34 36 36 37 36 35 33 31 28 27 26 26 26 27 28 28 29 29 29 28
32 32 33 33 32 31 30 30 30 27 26 24 23 22 20 21 23 24 25 27 28 28 30 33 33 34 35 37 38 37 40 44 47 51 53 55 57 59 60 60 59 60 65 72 75 72 65 59 56 53 46 37 30 26 24 24 24 26 28 30 33 35 37 37 38 36 34 33 31 30 28 26 25 22 22 22 22 24 25 26 26 28 28 28 27 25 22 20
35 35 34 33 31 31 31 30 28 26 25 24 23 24 26 29 30 31 32 31 31 32 34 35 35 36 37 38 39 40 44 45 45 48 49 50 53 56 58 61 61 60 59 60 62 63 60 55 51 47 42 38 37 37 38 40 42 44 46 48 48 47 44 39 35 30 26 24 22 21 20 19 19 18 20 21 23 25 26 27 26 25 24 22 20 20 21 24
36 35 34 32 31 31 30 28 27 26 25 25 27 31 34 35 35 35 34 31 31 32 33 33 33 34 36 37 37 39 41 39 38 39 39 37 39 41 45 50 55 57 58 58 59 60 59 57 56 54 53 52 52 53 53 53 52 51 49 47 42 37 33 28 25 22 20 20 19 19 18 17 18 20 22 24 25 25 24 23 22 21 22 24 28 32 37 41
36 35 33 32 32 31 29 28 28 28 28 31 34 37 38 37 35 33 30 27 27 28 27 27 27 28 28 28 28 28 28 26 25 25 24 22 22 24 26 28 32 36 39 43 47 50 52 53 52 52 52 51 50 48 46 43 40 37 34 31 27 24 22 20 18 18 17 17 17 20 21 18 18 22 23 23 22 21 22 24 27 30 35 39 43 47 50 54
35 34 33 33 31 30 29 30 31 32 34 37 39 40 38 34 30 28 26 23 23 22 21 20 20 20 19 17 17 16 16 16 15 15 14 14 14 14 14 15 16 17 19 21 23 25 27 28 29 29 29 29 28 26 24 23 21 20 19 18 17 17 16 17 17 17 18 19 20 21 23 20 18 19 20 21 24 30 35 39 42 44 46 47 49 52 54 57
35 34 33 32 31 31 32 34 35 36 39 40 39 36 31 28 26 24 23 21 21 20 18 18 17 16 16 15 15 14 14 14 14 13 13 13 13 12 13 13 13 13 13 13 14 14 14 15 15 15 15 15 15 15 15 15 16 16 16 16 17 17 18 18 18 19 19 18 18 18 20 19 19 21 26 32 40 44 45 45 44 44 44 45 48 52 55 57
35 35 34 33 33 34 36 36 37 40 40 37 33 28 26 25 24 23 23 21 21 20 18 18 17 16 16 15 15 15 15 14 13 13 13 12 12 12 13 13 13 13 13 14 14 15 15 15 15 15 16 16 16 16 16 16 17 17 17 17 17 16 16 16 16 16 16 17 20 21 23 26 28 31 36 41 43 42 40 38 37 38 42 47 52 55 56 58
35 36 35 35 36 37 39 38 38 38 34 29 26 24 25 24 24 24 22 21 20 19 18 17 16 14 13 13 12 11 11 11 11 11 11 12 11 11 13 13 13 13 14 14 15 15 15 14 15 14 14 14 14 14 14 14 14 14 14 14 14 15 15 16 18 19 21 23 26 27 29 32 32 32 36 37 36 36 35 34 38 44 51 55 57 58 59 62
35 36 37 39 41 41 40 37 35 31 27 24 24 24 25 24 24 23 21 20 19 15 14 13 11 10 9 8 8 8 9 8 8 9 9 10 10 10 11 10 10 10 11 11 11 11 12 11 11 11 12 12 12 13 13 14 14 15 16 16 17 18 18 19 21 22 24 24 26 27 28 31 31 31 34 36 35 35 38 42 49 54 57 58 60 63 66 68
36 38 40 43 45 44 39 31 27 25 24 24 25 26 26 25 24 21 18 17 14 10 10 9 7 8 7 7 7 7 7 7 6 7 7 7 8 8 9 9 9 10 10 11 11 12 12 12 12 13 13 14 14 14 15 15 16 16 17 17 17 17 18 19 20 21 23 24 25 28 30 33 36 36 38 40 40 42 48 54 58 59 61 64 66 69 70 71
37 40 42 45 47 43 33 25 23 23 25 26 27 27 26 24 21 17 13 12 9 7 7 7 6 7 6 6 7 6 6 7 7 8 8 8 9 9 9 10 10 11 11 12 13 13 13 12 13 13 14 14 14 14 15 15 16 17 18 19 19 20 20 22 23 25 28 29 30 33 36 38 42 43 44 46 47 51 57 61 63 65 68 70 72 73 74 76
38 42 45 47 46 37 27 23 24 26 28 29 27 25 22 18 14 11 9 8 6 6 6 6 6 6 6 7 7 7 8 8 8 9 9 9 9 10 10 10 11 12 12 13 14 15 15 15 15 15 16 16 16 18 19 20 21 22 23 24 25 26 25 26 27 28 30 31 33 37 40 43 50 54 52 51 55 60 64 66 69 72 74 76 77 79 81 84
40 45 47 47 43 34 27 25 27 30 31 27 23 20 16 12 9 7 6 6 5 5 5 6 6 7 7 7 8 8 8 8 9 9 10 10 11 11 12 12 13 13 14 14 15 16 18 18 17 17 17 17 19 21 22 23 24 25 25 26 27 28 28 27 27 27 30 32 35 41 45 50 56 60 58 59 65 68 71 74 78 79 80 82 84 87 89 87
44 47 47 45 40 33 29 29 31 31 26 20 16 13 10 7 6 5 5 5 6 6 6 7 7 7 7 7 8 9 9 10 11 11 11 11 11 11 12 12 12 12 12 13 13 14 16 16 14 14 15 15 18 20 20 21 22 22 22 23 25 26 26 27 28 28 29 32 37 45 52 56 60 64 66 70 75 78 81 83 83 84 86 88 88 82 71 56
49 48 44 42 37 33 33 32 30 24 17 13 11 8 6 5 5 5 6 6 7 7 7 7 7 8 9 9 10 11 11 11 10 10 9 9 9 8 8 9 9 9 9 9 9 10 11 12 11 11 12 14 16 17 17 18 19 20 21 21 22 23 25 28 30 33 35 40 45 52 61 66 69 72 75 80 84 85 86 87 88 88 84 73 58 41 27 17
50 46 42 40 39 36 32 27 21 15 10 8 6 5 5 6 6 6 6 7 7 7 8 10 10 11 11 10 10 10 9 8 8 7 7 7 7 6 6 7 7 7 7 7 8 8 9 11 12 11 12 14 15 15 15 17 18 19 19 20 22 25 30 34 37 41 45 51 56 62 71 76 79 82 85 86 87 87 89 88 81 67 48 30 18 11 9 9
50 46 41 38 35 29 22 17 13 9 7 6 5 6 6 6 7 7 7 8 9 10 11 11 10 10 9 8 8 7 7 7 6 6 6 5 5 5 6 6 6 7 7 7 8 8 9 11 12 12 12 13 14 14 16 17 18 19 21 25 30 33 38 43 48 53 57 63 67 72 78 82 83 85 86 86 87 86 79 63 43 25 13 9 9 10 12 12
45 40 33 28 23 17 12 9 7 6 6 6 6 7 7 7 8 9 10 11 10 10 10 9 8 7 7 6 6 5 5 5 5 5 5 5 5 6 6 6 7 7 7 8 9 9 10 11 12 13 14 15 17 19 20 20 22 25 28 33 37 42 47 52 60 67 71 77 78 78 80 80 81 85 87 86 78 60 40 22 12 9 10 11 12 13 14 14
28 25 20 16 13 9 7 6 6 6 6 7 7 8 9 10 10 11 11 10 9 8 7 6 6 5 5 5 4 5 5 4 5 5 5 6 6 6 7 7 7 8 8 9 10 11 13 14 16 18 19 21 22 24 25 26 29 33 36 41 46 51 56 63 72 79 83 88 89 85 82 81 84 87 80 62 40 21 11 9 10 12 13 14 15 16 16 15
16 15 12 9 8 6 6 6 6 7 8 9 9 10 11 11 11 10 9 8 7 6 6 5 4 4 4 4 4 4 4 4 5 5 5 6 6 6 7 7 8 10 11 13 14 16 17 19 21 23 25 26 27 28 30 32 36 39 43 49 55 61 69 76 82 88 91 95 96 94 92 87 80 66 43 23 12 8 10 12 13 14 16 17 17 16 15 13
11 9 7 6 6 6 7 8 8 9 10 11 12 12 12 11 9 8 7 6 5 5 4 4 4 4 4 4 4 4 4 5 5 5 6 6 6 7 7 8 11 13 16 18 20 21 22 23 25 26 27 29 30 32 35 39 43 46 52 58 64 71 80 85 89 92 93 98 103 102 92 70 45 26 13 8 10 12 13 14 16 18 19 17 16 14 14 13
7 6 6 6 7 8 10 10 11 12 12 13 12 11 10 8 6 6 5 5 4 4 4 4 3 4 4 4 4 4 4 5 5 5 6 6 7 8 9 12 15 18 20 22 23 23 23 24 24 26 28 31 34 37 42 47 49 53 61 69 76 83 89 91 94 96 97 101 100 82 55 29 14 10 10 11 13 14 16 18 19 19 18 16 15 14 13 14
6 6 7 8 9 11 12 13 13 14 14 13 11 9 7 6 5 5 5 4 4 4 4 4 4 4 4 4 4 4 4 5 5 5 6 7 8 11 14 16 19 20 21 22 22 22 22 23 23 24 26 29 34 38 43 50 56 61 68 76 83 89 93 95 99 102 97 86 64 35 16 10 9 11 12 14 16 18 20 21 21 20 18 15 14 14 15 16
7 9 10 11 12 13 14 14 14 14 12 10 8 6 6 5 5 5 5 4 4 4 4 4 4 4 4 4 4 4 5 5 5 6 8 10 13 16 18 19 19 19 19 19 19 19 21 24 25 26 28 32 36 38 41 49 59 69 78 83 87 91 95 99 98 89 68 42 21 10 9 11 12 13 15 17 19 21 22 22 21 19 16 14 14 15 17 18
10 12 13 13 14 15 15 14 13 11 9 7 6 6 6 5 5 5 5 5 5 5 5 4 4 4 4 4 5 5 6 6 7 10 13 15 17 18 18 18 17 16 16 16 16 17 20 24 28 31 34 38 43 45 49 56 67 79 87 90 94 98 99 91 71 47 26 12 8 10 11 12 14 16 19 20 22 23 23 23 21 18 15 14 15 16 19 21
12 13 15 15 15 16 14 12 10 8 8 7 6 6 6 6 6 5 5 5 5 5 5 5 5 5 5 5 5 6 7 10 12 15 17 18 17 17 16 14 13 12 12 13 13 16 20 25 32 37 41 45 49 54 63 75 85 92 94 96 99 94 77 52 29 15 9 9 11 12 13 15 18 20 21 23 24 24 24 24 22 18 15 15 17 19 22 24
14 15 15 15 15 15 13 11 9 9 8 7 7 7 6 6 6 6 6 6 6 6 5 5 5 5 5 5 6 8 10 14 17 18 18 17 15 14 12 10 10 10 10 11 12 15 21 28 35 42 48 52 57 67 82 93 98 101 100 95 82 59 34 17 10 10 11 12 13 15 17 20 21 22 24 24 25 26 27 26 22 19 17 18 20 22 25 27
16 16 16 16 15 14 13 11 10 9 9 8 8 8 7 7 7 7 7 6 6 6 6 6 5 5 6 6 8 10 13 15 17 17 15 13 11 10 8 8 8 7 8 10 13 17 24 30 38 47 53 59 71 86 97 102 104 103 91 68 42 22 12 10 11 12 12 14 16 19 21 23 24 24 25 26 28 29 29 26 23 20 19 20 23 26 28 29
17 16 16 16 16 14 13 12 11 10 10 9 9 9 8 8 8 7 7 7 6 6 6 6 6 6 7 8 11 13 15 16 16 13 11 9 7 6 6 6 6 7 9 11 16 21 27 35 43 50 57 71 88 100 103 104 101 85 57 30 15 11 11 12 12 14 16 18 21 23 24 24 24 25 27 29 31 31 30 28 25 23 23 25 27 29 30 31
18 18 17 16 16 15 14 13 13 12 12 11 10 10 10 9 8 8 7 7 7 6 6 6 6 7 9 11 13 15 16 15 13 10 7 6 5 5 5 5 6 8 11 14 20 27 33 42 48 51 64 85 99 102 101 94 74 47 23 12 11 12 12 13 15 18 21 23 24 25 25 25 26 28 30 31 33 33 33 31 28 27 27 29 29 30 31 33
20 19 18 17 16 16 15 14 14 13 13 12 12 11 11 10 9 9 8 7 7 6 6 6 7 9 11 13 15 16 15 12 9 7 5 5 5 4 4 5 7 9 13 18 25 33 40 47 50 57 73 91 99 97 85 62 35 18 12 12 13 13 14 17 20 23 25 26 27 27 27 28 29 30 32 33 35 36 36 35 33 31 31 31 31 32 34 35
Wind_Speed
7 5 4 4 5 5 3 2 0 1 2 3 3 3 4 5 5 6 6 6 6 6 6 7 7 7 8 8 9 9 10 11 11 12 13 14 16 17 17 17 18 18 19 20 20 21 21 22 22 22 23 23 24 24 25 25 25 26 26 25 24 25 27 28 28 28 28 28 29 30 31 31 30 30 31 31 31 32 33 33 33 32 30 30 31 31 32 33
8 7 5 5 4 4 3 2 2 3 4 5 6 6 6 7 7 8 9 9 9 10 10 10 10 11 11 11 11 11 12 13 14 14 15 16 17 18 18 19 19 20 21 22 22 23 23 24 24 24 25 25 26 26 26 26 27 28 28 27 26 28 29 29 29 29 29 29 30 30 31 31 30 30 31 31 31 32 33 33 31 30 29 30 30 31 32 33
10 9 7 6 6 5 5 4 4 5 7 8 8 8 8 9 10 10 11 11 12 12 13 13 14 14 14 15 15 15 15 16 16 17 18 18 19 20 20 21 21 22 22 23 24 25 26 26 27 27 27 27 28 28 28 28 29 30 29 29 29 30 31 30 31 31 31 31 31 31 31 31 31 31 31 31 32 33 33 32 31 30 30 30 31 32 33 33
11 11 10 9 8 7 7 7 7 8 10 11 11 11 11 11 12 12 13 13 14 14 15 15 16 16 17 17 18 18 18 19 20 20 21 21 22 23 23 23 24 25 25 26 26 27 27 28 28 29 29 29 30 30 30 30 31 31 31 31 31 32 32 32 32 32 32 32 32 32 32 32 32 32 32 32 33 33 32 32 32 32 31 31 32 33 34 35
12 12 11 10 10 10 10 10 11 12 13 14 14 14 14 14 14 14 14 15 15 15 15 16 16 17 17 18 18 19 19 20 21 22 22 23 24 25 25 26 27 28 29 29 30 30 31 31 31 31 31 31 32 32 32 32 33 32 32 33 33 33 34 33 33 33 33 33 33 33 33 33 32 32 32 33 33 33 33 33 33 33 33 33 34 34 35 36
14 13 13 12 12 12 13 13 14 15 16 17 17 16 16 15 15 15 16 16 16 16 17 17 17 17 17 17 18 18 19 20 21 22 23 24 24 25 26 26 27 29 30 31 32 33 33 34 34 35 34 34 34 34 34 34 34 34 33 33 34 35 35 35 35 35 34 34 34 34 34 34 33 33 33 34 34 34 34 34 34 34 35 35 36 36 37 38
15 15 15 15 15 15 16 17 18 19 19 19 19 18 17 16 16 16 17 17 18 18 18 19 18 19 19 19 20 19 20 21 21 22 23 24 24 25 26 27 28 29 30 31 33 34 35 35 36 37 37 37 37 37 37 36 36 35 34 34 35 35 35 35 36 36 36 36 35 35 35 35 34 35 34 34 35 35 35 35 36 36 37 37 38 38 39 39
17 17 17 18 19 19 20 20 21 21 21 20 19 17 16 16 16 17 17 18 18 19 19 19 19 20 20 21 21 21 22 21 22 23 23 24 25 25 26 27 28 29 30 31 33 34 35 36 37 38 39 39 40 39 39 39 38 37 36 36 35 35 35 36 36 36 36 36 36 36 36 35 35 36 35 35 35 35 35 36 37 38 38 39 40 40 41 41
19 19 20 20 21 21 22 22 22 21 20 19 17 16 16 16 17 17 18 19 19 19 19 20 20 20 20 21 21 22 22 22 23 24 24 25 26 27 28 29 29 30 31 32 33 34 36 37 38 39 40 40 41 40 40 41 40 39 39 38 37 36 36 36 36 36 36 36 36 36 36 36 36 36 36 35 35 36 36 37 38 39 40 41 41 42 42 43
21 21 22 22 22 22 22 22 21 20 18 17 16 16 16 17 17 18 19 20 19 19 19 20 21 20 20 20 21 22 22 23 25 25 26 27 28 29 30 31 32 33 34 34 35 36 37 38 39 40 41 41 41 41 41 42 41 40 40 39 38 37 36 36 36 36 37 37 36 36 36 36 36 36 36 36 36 37 38 38 39 40 41 42 43 43 43 44
23 23 23 23 23 22 21 20 19 18 16 15 15 16 16 16 17 17 18 19 19 19 19 19 20 20 20 20 22 23 23 25 27 27 29 30 31 32 33 34 36 37 37 38 38 39 39 39 40 41 41 42 42 42 42 42 41 41 40 39 38 38 36 36 35 36 37 36 36 36 36 36 36 37 37 37 38 38 39 39 40 41 42 43 44 44 45 45
24 23 23 22 21 20 19 18 17 16 15 14 14 14 14 14 14 15 15 16 17 17 17 17 18 19 20 22 23 25 26 28 30 31 33 34 35 36 37 38 39 40 40 41 41 41 41 41 41 41 42 42 42 42 41 41 41 40 40 40 39 38 36 35 35 35 36 36 36 36 37 37 37 37 38 38 39 40 40 41 42 42 43 44 45 45 46 46
22 21 20 19 19 18 17 16 15 14 14 14 13 12 11 11 11 12 12 14 15 16 17 18 20 21 23 25 27 28 30 32 33 34 36 37 38 39 40 40 40 41 41 42 42 42 42 42 42 41 41 40 40 40 40 39 39 39 39 39 38 37 36 35 35 35 35 35 36 36 38 38 38 39 39 40 41 41 42 42 43 43 44 45 46 47 48 49
19 18 18 17 17 16 15 14 14 13 12 11 10 9 9 10 11 12 13 15 16 18 19 21 23 25 27 29 30 31 32 34 34 35 36 37 37 38 39 40 40 40 40 41 41 41 40 40 39 39 38 37 37 37 37 37 37 37 37 37 36 36 36 35 34 35 35 35 36 37 39 39 39 40 40 41 41 42 42 43 43 44 45 46 47 49 50 51
18 17 17 16 15 14 13 12 11 10 8 8 8 9 10 12 13 14 16 17 19 21 23 25 27 28 29 30 31 31 32 33 33 33 34 34 35 36 37 38 39 39 39 38 37 37 36 36 35 34 33 33 33 33 34 34 35 34 35 35 34 34 34 34 34 34 34 35 37 38 39 40 40 40 41 41 42 42 43 43 44 45 47 48 49 51 52 53
16 16 14 13 12 11 10 8 7 7 7 8 10 12 13 14 15 17 19 20 22 23 25 27 27 28 28 29 29 30 30 30 30 29 30 30 31 32 33 34 35 36 36 35 34 32 31 31 30 30 30 29 30 31 31 32 32 32 33 33 33 33 33 33 33 34 35 36 37 38 40 40 40 41 41 42 42 43 44 45 47 48 49 50 51 52 53 54
14 12 11 9 8 7 6 5 6 8 9 10 12 13 15 17 18 20 21 22 24 25 26 26 26 26 26 26 27 26 26 25 24 24 24 24 25 26 28 30 31 31 30 30 29 28 27 27 27 27 27 27 28 29 29 30 30 31 31 32 32 32 33 33 34 34 35 37 38 39 40 40 41 41 42 43 44 46 47 48 49 50 51 52 52 53 53 54
9 8 6 5 4 4 5 6 8 10 11 12 14 15 17 19 20 22 22 23 23 24 24 24 24 24 24 23 23 22 21 20 20 19 19 19 20 21 22 23 25 25 25 25 25 26 26 25 25 25 25 26 26 27 28 28 29 30 31 32 32 32 32 33 34 35 37 38 39 41 42 42 42 43 44 45 46 48 49 50 51 52 52 53 53 53 53 53
5 5 4 4 4 5 7 8 9 11 13 14 16 17 18 20 21 22 21 22 22 22 22 23 22 22 21 20 19 18 18 18 17 17 17 17 18 18 19 20 20 21 21 22 23 24 25 24 24 24 24 25 25 26 26 27 27 29 30 31 32 33 33 34 36 37 38 40 41 42 43 43 44 45 46 47 48 49 50 51 52 52 52 53 53 52 52 52
4 4 4 4 5 7 8 9 11 12 14 15 17 18 19 20 21 21 20 20 20 20 21 20 20 19 18 18 17 17 17 17 17 17 18 18 18 18 18 19 19 20 20 22 23 24 25 25 24 24 25 25 26 26 26 26 27 28 29 30 31 32 33 35 36 37 38 39 40 41 43 44 45 46 47 48 49 50 50 51 51 51 51 51 51 51 52 53
4 3 4 5 6 7 9 11 12 14 15 16 17 18 18 19 20 20 20 19 19 19 18 18 18 17 16 16 16 17 17 17 17 18 18 18 18 18 19 19 19 20 21 23 24 24 25 25 25 25 25 25 26 26 27 27 28 29 30 31 31 32 33 34 35 37 38 40 41 42 44 45 46 47 47 48 48 48 48 48 49 49 49 50 51 53 54 55
3 4 4 6 7 8 10 11 13 14 15 16 16 17 17 17 17 18 18 18 17 17 17 16 16 16 16 16 17 17 18 18 18 18 18 18 18 18 19 19 20 20 21 22 23 23 24 24 24 24 25 25 26 27 28 28 29 30 31 32 33 34 35 36 37 38 40 41 42 44 45 46 46 46 46 46 46 46 46 47 48 49 50 52 53 54 55 55
3 4 5 7 8 9 11 12 13 14 15 16 16 16 16 15 16 16 16 16 15 15 15 14 15 15 16 16 17 17 17 18 18 18 18 18 18 18 18 19 19 20 20 21 22 22 23 24 25 25 26 27 27 28 29 30 31 32 33 34 35 36 37 38 39 40 41 42 43 44 45 45 45 45 44 44 44 45 47 48 50 51 51 52 52 52 51 51
4 5 6 7 9 10 11 13 13 14 14 15 14 14 14 14 14 14 14 14 14 14 14 14 15 15 16 16 17 17 18 18 18 19 19 19 19 19 19 19 19 19 19 20 21 22 23 24 25 26 27 28 29 30 31 32 33 33 34 35 37 37 38 39 40 41 41 42 42 43 44 45 44 43 44 45 46 48 49 49 49 49 49 49 48 49 49 50
5 6 7 8 9 11 12 12 13 13 13 13 13 13 13 13 13 13 13 14 14 14 14 15 16 16 16 17 17 18 18 19 19 20 20 20 20 20 20 20 20 20 20 21 22 22 23 24 26 26 27 28 30 31 31 32 34 35 36 36 38 38 39 40 40 41 41 42 42 42 44 47 46 46 47 47 48 47 46 46 46 46 47 47 48 49 49 50
6 7 7 9 10 10 11 11 11 12 12 12 12 12 12 12 12 13 14 15 15 15 16 16 17 17 17 18 18 19 20 20 20 21 21 22 22 22 21 21 22 22 22 23 23 24 25 26 27 28 29 29 31 32 32 33 34 35 36 36 37 38 38 39 40 41 42 43 43 44 45 48 49 47 46 46 45 44 43 44 45 46 46 47 48 48 48 48
6 7 8 8 9 9 10 10 11 11 11 11 11 11 11 12 13 14 15 15 16 16 17 17 17 18 18 19 19 20 20 21 22 22 22 23 23 23 23 23 23 23 23 23 24 24 25 26 27 28 29 30 31 32 32 33 34 34 35 36 37 38 39 40 41 42 43 44 44 44 44 46 46 45 44 43 42 43 44 45 45 46 47 46 46 46 46 46
6 7 8 8 8 9 9 9 10 10 10 10 10 11 11 13 13 14 16 16 17 17 18 18 18 19 20 20 21 21 21 22 22 22 23 24 23 23 23 23 24 24 24 24 24 25 26 27 28 29 30 31 32 33 33 34 35 36 37 38 39 39 40 41 41 41 42 42 42 42 42 42 43 42 42 42 42 43 44 45 46 46 45 45 44 45 45 46
6 7 7 7 7 8 9 9 9 9 9 9 10 11 12 13 14 15 17 17 18 18 19 19 20 21 21 22 22 22 22 23 23 23 23 24 24 25 25 25 26 26 26 26 27 27 28 29 30 31 32 32 33 34 34 35 36 36 37 37 38 38 38 39 39 39 39 39 39 39 39 40 41 41 40 41 43 44 45 45 45 45 44 44 45 46 46 46
6 6 6 6 6 7 8 8 8 8 9 9 10 11 13 14 15 16 17 18 19 20 20 20 21 22 22 23 23 23 24 24 24 24 24 24 24 25 26 26 27 27 28 28 28 29 29 30 30 31 31 31 32 32 32 33 33 34 34 35 35 35 36 36 36 37 37 37 37 38 38 38 40 40 41 42 44 45 45 45 45 45 45 45 46 46 47 47
6 6 5 5 5 6 6 7 7 8 9 10 11 13 14 15 16 17 18 18 19 21 21 21 22 22 23 23 24 24 24 25 25 25 25 25 25 25 26 26 26 27 27 27 27 28 28 28 29 29 29 30 30 30 31 31 31 32 32 33 34 34 35 35 35 35 36 37 38 38 38 39 40 41 42 44 45 45 45 44 45 45 46 46 46 47 47 47
5 5 4 3 4 4 5 6 7 8 10 11 12 14 15 16 17 18 19 19 20 21 21 22 22 22 22 23 23 23 23 23 23 23 24 24 24 24 24 24 24 24 23 23 23 24 26 27 28 28 28 28 29 29 30 30 31 31 32 33 34 35 36 36 36 36 37 38 39 39 40 40 41 42 43 44 45 44 44 44 45 45 46 46 46 46 47 47
5 4 3 2 3 4 5 6 8 10 11 12 13 15 16 17 18 19 20 20 21 21 21 21 21 21 22 22 22 22 22 22 22 22 22 22 22 22 22 23 23 23 23 23 22 22 24 26 28 28 29 29 29 30 30 31 32 33 34 34 35 37 38 38 39 38 39 40 40 40 40 40 40 40 42 44 44 43 44 44 45 45 45 45 46 46 46 47
4 3 2 2 3 4 6 8 10 11 12 14 15 16 17 18 19 20 20 21 21 21 21 21 21 21 21 21 21 22 22 23 23 23 23 24 24 24 25 25 25 26 26 26 25 24 25 27 29 30 31 31 31 31 32 33 34 34 35 36 36 37 39 40 41 41 41 41 41 40 40 39 39 40 42 42 42 43 43 43 43 44 44 44 45 46 46 47
3 3 3 3 4 5 7 9 11 12 13 15 16 17 18 19 20 20 20 20 20 20 20 20 21 21 21 22 22 23 23 24 24 25 26 26 27 27 27 27 28 28 28 28 28 27 26 29 31 32 32 33 32 33 33 34 35 36 36 37 37 38 39 40 41 41 42 42 42 40 39 39 40 41 41 41 41 41 41 41 42 43 43 44 44 45 45 46
4 4 4 5 5 7 9 10 11 13 14 16 17 18 18 19 19 18 18 18 19 19 20 20 21 22 23 24 24 24 25 26 27 27 28 28 29 29 28 29 29 29 30 30 30 29 28 28 31 33 33 32 33 33 34 34 35 36 37 38 38 39 39 40 40 41 41 42 42 40 40 39 40 41 40 39 39 39 40 40 41 42 42 42 43 43 44 46
5 5 5 6 7 8 10 11 12 14 16 16 17 17 17 17 17 17 17 18 18 19 20 21 22 23 24 25 26 27 27 28 29 29 29 29 30 30 30 30 30 30 30 31 31 31 30 29 30 33 33 33 33 34 34 35 36 37 38 38 39 39 39 40 40 41 41 41 41 40 40 40 40 40 39 39 39 39 40 40 40 40 40 41 42 43 45 47
6 6 6 7 8 9 11 12 13 15 16 16 16 16 16 16 16 17 18 18 19 20 21 22 24 24 25 26 27 28 29 29 30 30 30 30 30 31 31 31 31 31 32 32 32 32 32 31 31 33 34 34 35 35 36 37 37 38 39 39 39 40 40 40 40 40 41 41 41 41 41 41 40 39 39 39 39 39 39 39 39 39 40 41 43 45 47 49
7 8 8 8 9 10 12 13 14 15 15 15 15 15 15 16 17 18 19 20 21 22 23 24 25 26 27 28 29 30 30 30 30 30 30 31 31 31 31 32 32 32 33 33 33 34 34 34 33 35 37 37 37 37 38 39 39 39 40 40 40 40 40 39 39 39 40 41 41 42 42 41 40 39 39 39 38 37 37 38 39 40 42 44 46 48 50 52
9 9 9 9 10 11 12 13 14 14 14 14 14 15 16 17 18 19 20 21 22 23 25 26 27 28 29 30 30 30 31 31 32 31 32 32 33 33 33 33 33 34 34 35 35 36 36 36 36 37 39 39 39 39 39 39 40 40 40 39 39 39 39 39 38 38 38 38 39 39 40 39 38 37 36 36 36 36 37 39 41 42 44 46 48 50 52 54
9 9 9 10 11 12 13 13 13 14 14 15 16 16 17 18 19 20 21 22 24 25 26 28 28 29 29 30 30 31 31 32 33 33 33 34 34 34 34 35 35 35 36 37 38 38 38 39 39 39 40 41 40 40 40 40 40 40 40 40 39 39 38 38 37 36 35 35 34 35 36 36 34 34 34 34 35 37 39 41 43 45 47 49 51 52 54 55
9 10 10 11 11 12 13 13 14 15 15 16 17 17 18 19 20 21 22 24 25 26 27 28 28 29 29 30 30 31 31 32 33 34 34 35 35 35 36 37 37 38 39 39 40 40 41 41 42 42 43 43 42 41 40 40 40 40 40 40 39 38 37 36 36 35 34 33 32 33 33 33 31 32 33 35 37 39 41 43 45 47 49 51 52 53 54 56
10 11 11 11 12 13 14 15 15 16 16 17 17 18 19 20 21 22 23 25 26 26 27 28 28 29 29 30 30 31 32 33 34 34 35 35 36 37 37 38 39 40 40 41 41 42 43 43 44 44 44 43 41 41 40 39 40 40 39 39 38 36 35 34 34 33 32 31 31 31 31 31 31 32 34 36 39 41 43 45 47 49 50 51 52 53 55 57
11 11 12 13 14 15 15 16 16 16 17 17 18 19 21 22 23 24 24 25 26 27 28 28 28 29 30 31 31 32 33 34 35 35 36 37 37 38 39 40 40 41 41 42 43 44 44 45 46 46 46 44 43 42 41 40 40 40 39 38 36 35 34 33 32 31 30 29 29 30 31 32 33 34 37 39 41 43 45 47 48 50 51 52 53 54 56 58
12 14 15 15 16 15 16 16 16 16 17 19 19 21 22 23 23 24 25 26 27 27 28 29 29 30 31 31 32 33 34 35 36 36 37 38 38 39 39 40 41 42 42 43 45 46 46 47 47 48 47 46 45 45 44 42 40 39 37 36 34 33 32 31 30 29 28 28 28 29 31 33 35 37 39 41 43 45 47 48 49 50 51 52 53 55 57 60
15 16 16 16 16 16 17 17 18 18 19 20 21 22 23 23 24 25 26 27 28 28 29 29 30 30 31 32 33 34 34 35 36 37 37 38 39 39 40 41 42 43 45 46 47 48 48 47 47 46 46 44 44 43 42 41 39 36 35 33 32 31 30 28 27 27 27 27 28 30 32 35 37 40 42 43 45 47 48 49 50 51 52 53 54 57 59 62
16 16 16 16 16 17 17 18 19 20 20 21 22 23 24 24 25 26 27 28 29 29 30 30 30 31 32 33 34 34 35 35 36 37 38 38 39 40 41 43 44 46 47 48 49 49 49 47 45 45 44 43 42 41 39 37 35 33 32 31 29 28 26 26 25 26 27 28 30 32 34 36 39 42 44 45 47 48 49 50 51 51 52 54 56 58 61 63
17 16 16 17 18 18 18 19 21 21 21 23 23 24 25 26 27 27 28 29 30 31 32 32 32 33 34 35 35 35 35 36 36 37 38 39 40 42 44 46 47 48 49 50 50 50 48 47 45 43 43 41 40 38 36 34 32 30 29 28 26 25 24 24 25 26 28 30 32 34 36 39 41 43 45 47 48 49 50 50 52 53 54 55 58 60 62 65
17 17 16 17 19 19 20 21 21 22 23 24 25 25 26 27 28 29 30 31 32 32 33 34 34 35 36 36 37 37 37 37 37 38 39 41 43 45 47 48 49 50 50 50 50 49 48 46 44 42 41 40 37 35 33 31 30 28 27 25 24 24 24 25 26 28 30 32 34 36 38 40 43 45 46 48 48 49 50 51 52 54 55 56 59 61 64 66
17 18 18 18 19 20 21 21 22 23 24 25 26 26 27 28 29 30 31 32 33 34 35 35 36 36 37 37 37 38 38 38 39 40 42 44 46 48 49 50 51 51 51 50 49 48 47 45 43 41 39 37 34 32 31 29 27 26 25 24 23 24 25 26 28 30 31 33 35 38 40 42 43 45 47 48 49 50 51 52 53 54 56 57 60 62 65 68
17 18 19 19 20 21 22 22 23 25 25 26 26 27 29 30 31 32 33 34 35 35 36 36 37 37 37 38 38 38 39 40 42 44 45 47 49 50 50 51 51 51 50 49 48 47 45 43 42 40 37 34 32 30 28 26 25 24 24 23 24 25 26 28 30 32 33 35 37 39 41 43 44 46 47 48 50 51 51 52 54 55 57 59 62 65 67 70
18 19 19 20 21 21 22 23 25 25 26 27 27 29 30 31 33 34 34 36 36 37 37 37 38 38 38 38 39 39 40 42 45 46 47 49 50 51 52 52 52 51 49 48 46 45 43 42 40 38 34 32 30 28 26 24 23 23 24 24 25 26 28 29 31 33 35 37 39 41 42 44 45 47 48 50 51 52 53 54 56 57 59 61 64 67 69 71
Wind_Direction
180 185 183 174 163 160 156 148 60 341 323 314 296 273 261 257 257 258 259 260 259 256 250 246 247 246 246 246 246 246 247 249 250 251 252 254 255 256 256 256 257 258 258 258 258 258 259 259 260 260 261 262 262 262 263 263 263 263 263 263 262 261 261 263 266 267 267 268 268 270 271 271 271 271 271 271 270 269 268 267 268 269 271 271 270 269 269 269
191 196 203 209 203 195 198 213 250 287 298 301 295 281 269 262 258 257 256 256 257 257 257 255 256 256 256 256 256 256 257 257 258 258 258 259 260 261 262 262 262 262 263 263 263 263 263 263 263 262 262 262 263 264 264 265 265 265 265 265 264 263 263 264 265 266 267 267 268 269 270 272 273 273 272 272 271 270 269 269 271 272 272 271 271 272 272 273
202 204 209 223 235 241 245 251 260 273 286 292 292 286 274 265 260 258 257 255 255 254 254 255 256 257 259 260 260 260 260 262 264 264 265 265 265 267 267 268 268 267 267 267 267 266 266 266 265 265 264 263 264 264 264 265 265 266 266 266 265 264 264 264 264 265 266 267 269 270 271 273 274 275 275 274 273 272 272 273 274 274 273 274 274 275 275 276
212 214 215 222 236 252 263 269 274 278 284 288 290 288 278 269 262 259 258 255 254 253 253 253 254 256 258 259 261 261 262 263 265 266 267 268 268 269 269 270 271 270 270 270 270 269 269 268 268 267 267 266 265 265 265 265 266 266 267 268 267 267 267 266 266 266 267 268 270 271 272 274 275 276 277 276 276 276 276 277 276 276 277 277 277 277 277 278
219 224 226 228 233 245 259 269 277 281 284 287 288 287 281 273 267 262 260 258 256 255 255 255 255 256 257 260 262 264 265 266 267 269 269 270 270 270 270 270 271 272 271 271 271 271 271 271 271 271 270 270 269 268 268 268 268 268 269 269 269 269 269 269 269 269 269 269 270 271 273 274 275 276 277 277 278 278 278 278 278 279 279 278 278 278 278 279
224 229 233 235 239 245 256 266 273 278 281 284 285 283 280 275 270 266 263 261 259 258 257 257 258 260 262 264 265 267 268 268 269 271 271 271 272 272 272 272 271 272 272 272 272 272 272 272 272 272 272 272 272 272 272 272 272 271 271 271 271 271 271 271 271 271 271 270 271 271 272 273 274 274 276 277 279 279 279 279 279 279 278 278 278 278 278 279
227 231 235 240 245 252 260 267 272 276 279 281 281 280 277 273 269 267 265 263 262 261 260 261 263 266 268 270 271 272 272 272 273 273 273 274 274 274 274 274 273 273 273 273 272 273 272 272 272 272 272 272 272 273 273 273 273 274 274 273 273 272 272 272 271 271 271 271 271 271 271 272 272 273 274 276 278 278 279 279 278 278 278 278 278 278 278 279
231 234 239 246 252 259 265 270 274 276 279 280 280 278 274 271 269 268 266 264 264 264 266 268 269 271 273 275 277 277 276 276 276 276 276 277 278 278 277 276 276 275 274 273 272 272 271 271 271 271 271 271 271 272 272 272 272 273 274 273 274 274 274 273 272 272 271 271 271 271 271 271 272 273 274 276 277 278 278 278 278 278 278 279 279 279 280 280
238 241 246 252 258 263 267 270 273 275 276 277 277 274 271 269 267 267 267 267 267 269 272 274 275 277 277 279 280 280 280 281 280 280 281 280 280 280 280 279 278 277 275 274 272 271 270 269 269 269 269 269 269 270 270 271 271 272 272 273 274 275 275 274 273 272 271 271 270 270 270 271 272 273 274 276 277 277 277 277 278 279 279 279 280 280 281 281
244 248 253 258 261 265 267 269 270 271 272 272 271 270 269 268 268 269 270 272 274 275 276 277 279 280 280 281 282 281 283 283 282 283 283 282 281 281 281 281 281 279 277 276 274 272 271 269 268 268 267 267 267 267 268 269 270 271 272 272 273 273 274 275 275 274 272 271 270 270 271 272 273 274 275 276 276 277 277 278 279 279 280 280 281 281 281 281
250 255 259 262 265 266 267 268 268 269 269 269 269 269 270 271 272 274 275 277 279 279 279 279 279 279 280 281 281 282 283 282 282 283 282 282 282 281 281 281 281 279 278 277 276 274 272 271 269 268 267 266 266 266 267 268 269 270 271 271 272 272 273 274 274 273 273 272 272 272 272 273 274 275 276 276 277 278 278 279 279 280 280 281 281 281 281 281
256 260 263 265 266 267 268 269 270 272 273 273 274 275 276 277 277 278 278 278 278 279 279 279 280 280 281 281 281 282 282 280 281 281 281 282 282 282 281 280 279 279 278 277 275 274 273 272 270 268 267 267 266 266 266 267 268 268 270 270 271 271 272 272 273 272 272 272 272 273 273 273 275 276 277 277 278 279 279 280 280 280 281 281 281 282 281 281
260 262 265 267 268 269 270 272 275 278 280 281 281 283 283 282 281 279 279 279 281 283 285 285 284 283 283 282 282 283 282 282 282 282 282 283 283 282 281 280 279 277 276 276 275 274 273 272 270 269 268 267 267 267 267 268 268 268 269 270 270 271 271 271 272 272 272 272 273 273 274 274 275 276 277 278 279 279 280 281 281 281 281 281 281 282 282 282
265 268 270 271 271 271 273 276 280 283 284 286 289 292 293 291 290 289 289 289 290 290 290 289 286 286 286 286 286 286 286 287 286 287 287 286 285 284 283 282 280 278 277 276 275 274 274 272 271 270 269 268 268 269 269 269 269 269 269 269 270 270 270 270 271 272 272 273 273 273 274 275 276 277 277 278 279 280 280 281 281 281 281 281 282 282 282 282
270 272 273 272 272 272 274 278 282 285 289 294 298 300 299 298 297 296 295 294 294 293 291 290 288 290 290 290 291 292 292 292 292 292 291 290 289 287 287 286 284 283 281 279 277 276 275 274 272 271 271 271 271 271 271 271 271 271 271 270 270 270 271 271 271 273 274 274 274 274 275 276 276 277 278 279 280 280 281 281 281 282 282 282 283 283 283 284
271 272 271 270 269 269 272 276 282 289 296 298 298 298 299 299 299 298 297 297 296 295 293 291 292 293 294 295 296 296 296 296 296 295 293 293 292 292 291 290 289 288 286 285 283 280 277 275 274 274 274 274 273 273 273 273 273 273 272 272 271 271 271 272 273 274 274 274 275 275 275 277 278 279 279 280 280 281 281 281 282 283 283 284 284 284 285 285
268 266 265 263 262 263 267 274 285 292 294 295 297 300 301 301 300 299 299 299 298 296 295 296 298 298 299 300 301 300 300 299 298 298 298 299 298 298 297 295 294 293 291 290 288 286 282 279 278 277 277 276 275 275 276 276 276 275 275 274 274 273 273 273 273 273 274 274 275 275 276 277 278 279 279 280 280 281 282 283 283 284 284 285 285 285 285 285
259 254 248 245 247 257 270 280 289 294 297 300 303 304 304 303 302 302 302 301 300 300 300 302 304 304 304 305 304 303 303 302 304 306 308 310 310 310 309 307 304 301 299 296 292 289 286 284 281 280 279 279 279 280 279 279 278 278 278 278 277 277 276 275 274 274 275 275 276 276 276 277 278 279 280 280 281 282 283 283 284 284 285 285 285 285 285 285
231 220 216 227 250 268 281 290 297 301 304 306 307 307 306 304 303 304 306 305 305 306 307 308 309 308 309 309 307 307 308 310 313 315 318 323 324 325 326 325 321 314 307 300 295 291 288 286 283 283 283 283 284 284 283 283 282 282 281 280 279 278 276 275 275 276 276 276 276 277 277 278 278 279 280 281 282 283 283 284 284 285 285 285 285 286 286 286
199 209 230 255 274 286 295 300 303 306 308 309 309 309 308 307 306 308 310 310 311 312 312 312 311 310 311 310 309 311 314 317 320 322 327 331 333 333 332 329 325 319 311 302 295 291 289 287 285 286 287 287 287 287 287 287 286 286 285 283 282 280 279 278 278 278 278 278 278 278 279 279 279 280 281 282 283 283 284 284 285 285 285 285 285 285 286 286
220 244 265 281 291 298 303 306 308 310 311 311 310 310 311 313 315 317 317 317 317 317 315 314 311 311 311 311 313 317 320 325 328 330 332 334 333 331 328 325 321 316 310 302 296 291 290 289 288 288 288 288 289 289 289 288 287 286 286 285 284 283 282 281 281 281 280 280 280 280 280 281 282 282 283 283 284 284 284 284 284 284 285 285 285 285 285 285
257 273 287 297 300 305 308 310 312 313 313 312 314 316 319 322 324 323 321 320 321 320 318 316 315 316 318 320 323 326 329 333 336 337 337 336 334 330 326 323 319 316 311 305 299 293 290 289 288 288 288 288 288 287 287 286 286 285 285 285 285 285 284 283 283 282 282 282 282 282 282 282 283 284 284 284 285 285 285 284 285 285 285 285 285 285 284 284
280 292 300 306 308 311 313 313 314 315 316 318 323 326 329 330 328 325 323 323 325 325 324 325 326 327 329 332 334 336 338 340 340 340 340 338 337 334 330 326 321 317 313 308 302 297 293 291 290 289 288 287 286 286 285 285 285 285 285 285 285 285 285 285 284 284 284 284 284 283 283 283 284 284 285 285 285 285 285 285 286 286 285 285 284 284 283 283
295 305 309 313 315 315 315 316 318 320 323 328 332 333 333 332 330 328 328 331 333 334 335 337 339 339 340 341 341 341 341 341 340 338 337 336 335 333 331 329 325 320 315 310 305 301 297 294 292 291 290 289 288 287 287 287 286 286 286 286 286 287 287 286 286 286 286 286 286 286 286 286 286 286 286 286 286 286 287 287 286 286 285 284 284 283 282 282
309 314 317 318 317 317 319 322 325 328 333 335 336 336 336 335 334 334 338 343 345 344 344 345 345 345 344 344 343 341 339 339 337 334 333 331 329 328 326 324 321 318 315 310 307 304 301 297 295 294 292 291 290 289 289 289 288 288 288 288 288 288 288 288 288 288 288 287 287 288 289 288 288 289 289 289 289 289 288 287 286 285 284 284 283 282 282 282
319 319 320 320 319 321 325 330 333 335 339 338 337 339 339 340 341 342 346 350 350 348 348 348 348 346 344 343 341 338 336 335 334 331 329 327 326 325 323 321 318 315 312 309 306 304 301 299 297 296 294 293 292 291 291 290 290 289 289 289 289 289 289 289 289 289 289 289 289 290 290 290 290 291 291 290 290 289 287 286 285 285 285 284 284 284 285 286
321 319 320 321 323 328 333 336 337 338 340 339 340 341 342 345 346 347 350 351 350 348 347 347 346 345 342 340 338 336 334 332 331 328 326 324 323 322 321 319 317 314 312 309 306 304 302 301 299 298 296 295 294 293 292 292 291 290 290 290 290 290 290 290 290 290 290 290 290 290 290 290 291 291 291 290 290 288 287 287 287 287 287 287 288 289 289 289
320 320 322 325 329 334 337 339 339 340 341 341 342 343 345 348 348 349 350 349 348 347 345 344 342 340 339 337 335 333 331 329 327 326 324 323 322 322 320 319 317 315 313 310 308 306 304 302 300 299 297 296 295 294 293 293 292 292 292 291 291 291 291 291 291 291 291 291 291 291 291 291 291 291 291 290 289 289 288 288 288 289 290 291 291 291 291 291
321 323 326 330 336 338 339 341 341 342 342 342 344 346 348 349 348 350 349 347 346 345 343 341 339 338 336 335 333 331 329 328 327 326 325 323 322 321 319 318 316 314 311 309 308 306 304 302 300 299 298 297 296 295 295 295 294 294 294 294 293 293 293 293 293 293 293 293 292 292 292 291 291 290 290 289 289 289 289 289 290 291 292 293 293 293 292 292
323 326 330 335 341 340 341 343 343 343 343 344 347 349 349 349 349 349 347 345 344 343 342 340 338 337 335 333 331 330 329 327 326 325 323 322 320 319 317 316 315 314 312 312 310 309 307 306 303 302 301 300 300 299 299 298 298 298 297 297 296 295 295 294 294 294 294 293 292 292 292 291 291 291 291 290 289 290 291 292 293 294 294 294 294 294 294 294
326 328 332 338 342 340 342 345 345 346 347 348 349 348 348 349 348 347 346 345 343 341 340 339 337 335 334 332 331 330 329 327 327 326 326 325 324 323 322 321 320 319 318 317 316 315 313 310 308 307 306 306 305 304 304 303 302 301 300 299 298 297 296 295 295 295 294 293 293 293 292 293 293 292 292 291 291 292 293 294 295 295 295 295 295 296 296 297
327 329 333 340 342 339 341 345 347 350 350 349 347 347 348 349 347 346 345 344 341 339 339 338 336 335 334 334 333 332 331 331 331 331 331 330 330 329 327 326 324 323 322 321 319 318 315 313 311 310 309 308 308 307 306 304 303 302 301 300 299 298 297 296 295 295 294 293 293 294 294 295 295 294 293 293 294 295 295 296 296 296 296 297 297 298 298 298
328 332 337 347 347 340 336 340 343 346 348 347 348 349 349 347 346 345 343 341 340 339 340 340 339 340 339 339 339 338 338 339 339 339 338 337 336 335 333 331 329 327 326 325 323 320 316 313 312 311 309 308 308 306 305 304 303 302 301 300 299 298 298 297 297 297 296 296 296 297 297 297 297 296 295 296 296 297 297 297 298 298 298 299 299 299 299 298
336 346 360 4 356 342 335 336 340 344 347 348 350 350 347 345 344 343 342 342 343 344 345 345 345 346 346 346 348 347 347 347 346 344 343 341 339 338 335 333 330 328 326 325 323 321 317 313 312 311 309 309 308 306 305 304 303 303 302 301 300 299 299 299 300 299 299 299 299 300 299 299 298 297 296 297 298 298 299 299 300 300 300 300 300 299 299 299
6 20 24 14 360 345 338 339 342 346 349 350 350 347 344 343 344 344 345 347 349 350 352 352 351 353 353 353 353 351 348 347 344 342 340 338 336 335 332 330 328 325 324 322 321 320 318 314 312 311 310 310 309 307 307 306 305 304 303 302 301 301 301 301 301 301 300 300 300 301 300 299 298 297 298 300 300 300 301 300 300 300 300 300 300 301 301 302
38 35 29 16 1 350 345 345 347 349 350 349 346 344 345 347 348 350 353 355 357 359 0 360 358 356 354 352 350 347 344 342 340 339 337 335 334 332 331 329 327 325 324 323 321 320 319 316 313 312 312 312 311 309 308 307 306 305 304 303 302 302 302 302 301 301 301 301 302 302 302 301 301 301 302 303 302 302 302 301 301 302 302 303 303 304 305 305
41 34 25 13 4 356 352 351 350 349 348 347 347 348 351 354 357 1 5 7 8 6 3 1 358 354 350 347 345 343 342 340 339 338 337 335 334 333 332 330 329 327 326 325 323 323 322 320 317 314 314 314 313 311 310 308 307 305 304 304 304 304 304 303 303 303 303 302 303 303 304 304 304 305 305 305 304 304 304 304 305 305 306 307 307 308 308 308
40 32 22 15 9 1 355 352 349 348 348 351 354 358 3 8 12 14 14 12 9 5 0 357 353 350 347 345 343 342 341 340 339 338 338 336 336 335 333 332 331 330 329 328 326 325 324 323 320 318 317 316 315 313 312 310 309 307 307 306 306 306 305 305 305 305 305 305 306 306 306 306 307 308 308 307 307 307 308 308 308 309 310 310 310 310 310 309
43 36 27 16 7 358 352 350 351 353 357 2 8 14 19 21 19 16 13 9 4 359 356 353 350 348 347 346 344 343 342 341 340 340 339 338 337 336 334 333 332 332 331 330 328 327 326 325 323 320 319 318 316 315 313 311 309 308 307 307 307 306 306 307 308 308 309 309 309 309 308 308 309 309 309 309 310 310 311 311 312 312 313 312 312 311 311 311
43 34 23 10 360 354 354 357 2 8 14 20 24 26 25 22 17 12 8 4 360 356 354 352 350 349 348 347 345 344 343 342 342 341 340 339 338 337 336 335 334 334 333 331 329 328 326 325 324 321 319 318 316 314 312 310 309 308 308 308 307 308 308 309 310 310 310 310 309 308 308 309 311 311 311 312 313 314 314 314 315 315 314 313 313 312 312 312
33 23 12 4 1 2 8 15 22 29 31 31 29 26 22 17 11 7 4 1 359 356 354 353 351 350 349 347 346 345 344 342 342 341 340 339 338 337 336 336 335 335 333 331 330 328 326 324 323 320 318 317 315 314 312 310 309 309 309 309 310 311 312 313 312 312 311 310 308 308 309 311 313 313 313 315 315 316 316 316 316 315 315 314 314 313 313 313
21 14 9 10 15 22 31 38 40 38 35 31 26 21 16 12 8 5 3 1 359 357 355 353 352 350 349 348 346 345 344 342 341 340 339 339 338 337 336 336 335 334 333 331 329 327 325 323 321 319 318 316 315 313 312 311 311 311 312 313 314 315 315 315 314 314 313 312 311 311 312 314 315 315 316 317 317 318 317 317 316 316 315 315 315 315 315 315
17 18 22 30 40 46 48 46 42 36 31 26 21 16 12 9 7 6 4 2 360 358 356 354 353 351 349 348 346 345 344 343 341 340 339 339 338 337 336 335 334 333 332 330 328 326 324 322 320 318 316 316 315 313 313 313 313 314 315 316 317 318 317 317 316 315 315 315 314 315 315 317 318 318 319 319 319 318 317 317 317 317 316 316 315 316 316 316
29 38 47 54 56 54 49 42 36 31 26 21 17 14 12 10 9 7 4 3 1 359 356 355 353 352 349 348 347 345 344 343 342 340 339 338 338 337 336 335 334 333 331 329 327 325 322 320 318 316 315 315 314 314 316 317 317 318 319 319 320 319 318 317 316 316 317 317 317 318 319 320 321 320 320 320 320 319 318 318 318 318 317 316 316 316 316 316
55 61 62 61 56 49 43 37 31 26 22 18 16 14 13 11 10 8 5 4 2 360 357 355 354 352 350 349 348 346 344 343 341 340 339 339 338 338 337 335 334 332 330 328 325 323 321 320 318 317 316 316 316 316 318 319 320 320 320 320 321 320 318 317 318 318 319 320 320 321 322 322 322 321 321 321 321 320 320 320 319 318 318 317 316 316 316 317
70 68 62 57 51 44 38 32 27 24 21 19 17 16 14 12 10 8 5 3 2 0 358 356 354 352 351 349 347 346 344 342 342 341 340 339 339 338 337 335 333 331 328 326 324 322 321 320 319 318 318 319 319 319 320 320 320 320 321 322 321 319 318 319 320 320 321 322 322 323 323 323 322 322 322 322 322 322 321 321 320 318 317 316 316 316 317 318
70 65 58 51 45 39 33 29 27 25 22 20 19 16 14 12 9 8 6 3 2 0 358 356 355 353 351 349 347 346 345 344 343 342 341 340 339 338 336 334 332 329 327 325 323 321 320 320 320 320 320 321 321 322 322 322 322 322 322 322 321 320 320 321 322 323 323 324 324 324 324 323 322 323 323 323 323 322 321 320 318 317 316 316 316 317 319 320
64 58 52 46 41 36 31 28 27 25 22 21 19 16 14 11 9 7 5 3 1 360 358 356 355 353 351 349 348 347 346 345 344 343 342 341 339 337 335 333 330 328 326 324 322 321 321 321 322 322 323 323 324 324 324 324 324 323 323 323 323 323 324 325 325 325 325 325 326 326 325 324 324 324 324 323 323 322 321 319 318 317 317 317 318 320 321 321
58 51 45 41 38 34 30 28 26 24 22 20 17 15 13 11 8 6 5 3 1 359 358 356 354 353 351 349 348 347 347 346 346 344 342 340 338 336 334 332 330 328 326 324 323 322 322 323 324 325 325 326 326 326 326 326 325 325 325 326 327 327 328 328 328 327 327 327 327 327 326 326 326 325 325 324 323 322 321 320 319 318 318 319 320 321 322 322
54 48 42 37 35 32 29 27 25 23 21 19 16 14 12 10 8 6 4 3 1 359 358 356 354 352 351 350 349 348 347 347 346 345 342 340 338 336 335 333 331 329 327 325 324 324 325 325 326 327 328 328 328 328 328 327 326 326 328 329 330 330 330 330 329 328 328 329 328 328 328 327 327 326 325 324 323 322 321 320 319 319 319 320 321 322 323 323
49 45 40 35 33 30 27 25 23 22 20 17 15 13 12 10 8 6 4 2 0 359 357 355 354 352 351 350 349 349 348 347 345 344 342 341 339 338 336 334 332 330 329 328 327 327 327 328 328 329 330 330 330 329 329 329 328 328 330 332 333 332 332 333 332 330 330 330 330 330 329 329 328 327 326 325 324 323 322 321 320 320 321 322 323 323 324 323
44 40 37 33 30 28 25 23 22 20 18 16 14 12 11 9 7 5 3 2 360 358 357 355 354 353 352 351 350 349 348 346 345 344 343 342 340 339 338 336 334 333 331 330 330 330 330 330 330 332 333 332 332 332 331 330 329 331 333 334 334 333 334 334 334 332 331 332 332 332 331 330 329 329 328 327 325 324 323 322 322 322 323 323 324 324 324 324